ATLAS 5 CENTAUR DEB, 43963

Orbit data source: Space-Track

ATLAS 5 CENTAUR DEB, 43963 is space debris in HEO originally from a launch on Wed, 17 Sep 2014 UTC launched from the Air Force Eastern Test Range (AFETR). Debris objects in space refer to the collection of defunct objects orbiting the Earth. Examples of debris include non-operational satellites, rocket bodies, and fragments generated from explosions, collisions, or faulty payload assembly.

Loading next visibility...
Identifier
43963, 2014-055S
Orbit
HEO
Country
Flag of USUS
Related business
Flag of USUnited Launch Alliance/Lockheed Martin (US)
Manufacturer
Unknown
Mission
Spacecraft
Bus & Motor
Unknown
Mass
Unknown
Launch date (UTC)
2014-09-17 (12 years ago)
Launch vehicle
Unknown
Launch site
Air Force Eastern Test Range (AFETR)
Object type
Payload
Rocket body
Debris
Shape & HBR
Unknown shape, 1.1 m
Radar Cross Section
Medium (>0.1 m² and <1 m²)

Expand to show TLE details & history
Last TLE update: 2 weeks ago

TLE from 2 weeks ago
0 ATLAS 5 CENTAUR DEB
1 43963U 14055S   26244.00065318 -.00000113  00000-0  00000-0 0  9997
2 43963  20.6784 117.0959 4922610 215.1490  99.3863  1.87928653 54895
Epoch: 2026-09-01T00:00Z
TLE epoch observation values (Epoch: 2026-09-01T00:00:56.434Z)
Latitude
Longitude
136.76278°
Altitude
28,803.071 km
Speed
2.879 km/s
True Right ascension
07h 48m 41s
True Declination
0° 00' 00"
Sunlit
Object was in daylight at epoch
Visualization orbit readout
Latitude
Unknown
Longitude
Unknown
Altitude
Unknown
Speed
Unknown
Apparent Right ascension
Unknown
Apparent Declination
Unknown
Sunlit
N/A
Visualization observer readout
Local Sidereal Time
17:12:41
Azimuth
Unknown
Elevation
Unknown
Doppler factor
Unknown
Orbital elements
Apogee altitude
35,016.957 km
Perigee altitude
7,706.466 km
Semi-major axis
27,739.848 km
Eccentricity
0.49226
Inclination
20.6784°
RAAN
117.0959°
Arg. of periapsis
215.149°
True anomaly
144.87489°
Mean anomaly
99.3863°
Eccentric anomaly
123.03199°
Mean motion
0.46977 °/min
Orbital period
766.33 mins
BSTAR
0
Loading maneuver chart data...
Computing Atmospheric mass density...

Documentation

Showing up to 5 results
|